Weather in Gorno-Tayozhnoe

Russia / Primorsky Krai     43°41′46″N   132°09′25″E
temp.,
°C
wind,
m/s
gust,
m/s
humid.,
%
clouds,
%
prec.,
mm/h
press.,
hPa
HPBL,
m
24 june, thu
thu2401:00+13sse239442 0.0 101146
04:00+12sse229526 0.0 101032
07:00+14sse22895 0.0 101178
10:00+22ssw215575 0.0 1010557
13:00+27w2138100 0.0 10081710
16:00+28wnw323698 0.0 10072154
19:00+22s46645 0.0 1009396
22:00+15sse22929 0.1 101042
25 june, fri
fri2501:00+13sse239136 0.0 101064
04:00+14sse239139 0.0 101071
07:00+15sse25875 0.0 1011155
10:00+22ssw46595 0.0 1010623
13:00+26ssw44465 0.0 1009966
16:00+26ssw55462 0.0 1009971
19:00+20s4965100 0.0 1009459
22:00+17s413820 0.0 1010445
26 june, sat
sat2601:00+15sse312917 0.0 1010378
04:00+13sse36973 0.0 1010117
07:00+15sse28860 0.0 1011241
10:00+22s47550 0.0 1011668
13:00+25s57435 0.0 1010964
16:00+25s574194 0.0 1010913
19:00+21ssw51063100 0.0 1010563
22:00+15sse3988100 0.0 1011257
27 june, sun
sun2701:00+13sse249799 0.0 101182
04:00+13sse249697 0.0 101173
07:00+15sse2486100 0.0 1011104
10:00+21s465394 0.0 1011672
13:00+24ssw4542100 0.0 10101090
16:00+24ssw5642100 0.0 1008943
19:00+21s485639 0.0 1007461
22:00+14sse358511 0.0 100892
28 june, mon
mon2801:00+13sse228166 0.0 100842
04:00+13se22785 0.0 100719
07:00+15sse11733 0.0 100744
10:00+23n22445 0.0 1007526
13:00+28n34415 0.0 10051433
16:00+27nnw2249100 0.0 10041054
19:00+22s357395 0.2 1005183
22:00+16s3492100 1.7 100767